Location: ??????????
(54.7560°N, 39.1389°E)
Time: 02:24:51
(UTC+00:00)

Cosmos 2016 Rocket - Pass Details

Date: 19 May 2025
Orbit: 946 x 999 km, 83.0° (Epoch: 13 June)

Event Time Altitude Azimuth Distance (km) Brightness Sun altitude
Rises 22:35:16 0° 347° (NNW) 3,640 8.1 -13.6°
Reaches altitude 10° 22:37:47 10° 343° (NNW) 2,695 7.2 -13.4°
Maximum altitude 22:43:48 58° 267° (W) 1,117 4.2 -13.1°
Enters shadow 22:48:30 17° 193° (SSW) 2,227 5.2 -12.9°
